Location: F?ge?el
(45.8833°N, 22.5833°E)
Time: 12:08:38
(UTC+00:00)

Cosmos 2251 Rocket - Pass Details

Date: 17 November 2025
Orbit: 760 x 788 km, 74.0° (Epoch: 11 December)

Event Time Altitude Azimuth Distance (km) Brightness Sun altitude
Rises 16:19:47 0° 190° (S) 3,227 7.0 -14.5°
Reaches altitude 10° 16:22:09 10° 187° (S) 2,309 6.2 -14.9°
Maximum altitude 16:27:20 63° 107° (ESE) 867 3.5 -15.8°
Enters shadow 16:32:12 12° 28° (NNE) 2,200 5.5 -16.6°
